• In Österreich
  • Länderverzeichnis
  • Für 7 Tage
  • Wassertemperatur
  • Satellitenkarten
  • Wetterkarte
  • News
  • Widgets
  • user-avatar
    Anmelden

    Stündliche Wetter Luanda

    Heute, 22 September, Samstag

    Zeit Temperatur Niederschläge Wind Luftdruck Luftfeuchtigkeit
    00:00 +25°C° 0 mm 2 m/S 753 mmHg 80%
    01:00 +24°C° 0 mm 2 m/S 753 mmHg 81%
    02:00 +24°C° 0 mm 2 m/S 753 mmHg 82%
    03:00 +24°C° 0 mm 2 m/S 753 mmHg 83%
    04:00 +24°C° 0 mm 2 m/S 752 mmHg 84%
    05:00 +24°C° 0 mm 2 m/S 753 mmHg 82%
    06:00 +24°C° 0 mm 1 m/S 753 mmHg 80%
    07:00 +25°C° 0 mm 1 m/S 753 mmHg 78%
    08:00 +27°C° 0 mm 1 m/S 753 mmHg 70%
    09:00 +29°C° 0 mm 1 m/S 754 mmHg 61%
    10:00 +31°C° 0 mm 1 m/S 754 mmHg 52%
    11:00 +31°C° 0 mm 2 m/S 753 mmHg 50%
    12:00 +33°C° 0 mm 3 m/S 753 mmHg 47%
    13:00 +34°C° 0 mm 4 m/S 752 mmHg 45%
    14:00 +33°C° 0 mm 5 m/S 752 mmHg 49%
    15:00 +32°C° 0 mm 5 m/S 751 mmHg 52%
    16:00 +30°C° 0 mm 5 m/S 751 mmHg 56%
    17:00 +28°C° 0 mm 5 m/S 751 mmHg 63%
    18:00 +27°C° 0 mm 4 m/S 752 mmHg 69%
    19:00 +26°C° 0 mm 4 m/S 752 mmHg 75%
    20:00 +25°C° 0 mm 3 m/S 753 mmHg 77%
    21:00 +25°C° 0 mm 3 m/S 754 mmHg 79%
    22:00 +25°C° 0 mm 2 m/S 754 mmHg 80%
    23:00 +25°C° 0 mm 2 m/S 754 mmHg 81%

    Morgen, 23 September, Sonntag

    Zeit Temperatur Niederschläge Wind Luftdruck Luftfeuchtigkeit
    00:00 +25°C° 0 mm 2 m/S 754 mmHg 81%
    01:00 +25°C° 0 mm 2 m/S 754 mmHg 82%
    02:00 +25°C° 0 mm 2 m/S 754 mmHg 81%
    03:00 +25°C° 0 mm 2 m/S 753 mmHg 80%
    04:00 +25°C° 0 mm 2 m/S 753 mmHg 79%
    05:00 +25°C° 0 mm 1 m/S 754 mmHg 78%
    06:00 +25°C° 0 mm 1 m/S 754 mmHg 77%
    07:00 +25°C° 0 mm 1 m/S 755 mmHg 76%
    08:00 +26°C° 0 mm 1 m/S 755 mmHg 70%
    09:00 +28°C° 0 mm 2 m/S 755 mmHg 65%
    10:00 +29°C° 0 mm 2 m/S 755 mmHg 59%
    11:00 +30°C° 0 mm 3 m/S 754 mmHg 55%
    12:00 +31°C° 0 mm 3 m/S 753 mmHg 52%
    13:00 +33°C° 0 mm 4 m/S 752 mmHg 48%
    14:00 +32°C° 0 mm 4 m/S 752 mmHg 52%
    15:00 +30°C° 0 mm 5 m/S 752 mmHg 56%
    16:00 +29°C° 0 mm 5 m/S 751 mmHg 60%
    17:00 +28°C° 0 mm 5 m/S 752 mmHg 66%
    18:00 +27°C° 0 mm 4 m/S 753 mmHg 72%
    19:00 +25°C° 0 mm 4 m/S 753 mmHg 78%
    20:00 +25°C° 0 mm 4 m/S 754 mmHg 79%
    21:00 +25°C° 0 mm 3 m/S 754 mmHg 81%
    22:00 +25°C° 0 mm 3 m/S 755 mmHg 82%
    23:00 +25°C° 0 mm 3 m/S 755 mmHg 82%

    übermorgen, 24 September, Montag

    Zeit Temperatur Niederschläge Wind Luftdruck Luftfeuchtigkeit
    00:00 +25°C° 0 mm 2 m/S 754 mmHg 81%
    01:00 +25°C° 0 mm 2 m/S 754 mmHg 80%
    02:00 +25°C° 0 mm 2 m/S 754 mmHg 80%
    03:00 +25°C° 0 mm 2 m/S 753 mmHg 80%
    04:00 +25°C° 0 mm 2 m/S 753 mmHg 80%
    05:00 +25°C° 0 mm 2 m/S 753 mmHg 79%
    06:00 +25°C° 0 mm 1 m/S 754 mmHg 77%
    07:00 +25°C° 0 mm 1 m/S 754 mmHg 76%
    08:00 +26°C° 0 mm 1 m/S 755 mmHg 71%
    09:00 +27°C° 0 mm 1 m/S 755 mmHg 66%
    10:00 +28°C° 0 mm 2 m/S 755 mmHg 61%
    11:00 +29°C° 0 mm 3 m/S 754 mmHg 57%
    12:00 +30°C° 0 mm 4 m/S 753 mmHg 53%
    13:00 +33°C° 0 mm 4 m/S 753 mmHg 49%
    14:00 +32°C° 0 mm 5 m/S 752 mmHg 51%
    15:00 +30°C° 0 mm 5 m/S 752 mmHg 53%
    16:00 +30°C° 0 mm 5 m/S 751 mmHg 55%
    17:00 +28°C° 0 mm 4 m/S 752 mmHg 62%
    18:00 +27°C° 0 mm 4 m/S 752 mmHg 68%
    19:00 +26°C° 0 mm 4 m/S 753 mmHg 74%
    20:00 +25°C° 0 mm 3 m/S 754 mmHg 77%
    21:00 +25°C° 0 mm 3 m/S 754 mmHg 79%
    22:00 +25°C° 0 mm 3 m/S 755 mmHg 82%
    23:00 +25°C° 0 mm 3 m/S 755 mmHg 83%

    25 September, Dienstag

    Zeit Temperatur Niederschläge Wind Luftdruck Luftfeuchtigkeit
    00:00 +25°C° 0 mm 3 m/S 754 mmHg 83%
    01:00 +24°C° 0 mm 3 m/S 754 mmHg 84%
    02:00 +25°C° 0.1 mm 2 m/S 754 mmHg 83%
    03:00 +25°C° 0.1 mm 2 m/S 754 mmHg 82%
    04:00 +25°C° 0.1 mm 2 m/S 754 mmHg 82%
    05:00 +25°C° 0.1 mm 1 m/S 754 mmHg 81%
    06:00 +25°C° 0.1 mm 1 m/S 755 mmHg 80%
    07:00 +23°C° 0.1 mm 0 m/S 755 mmHg 80%
    08:00 +24°C° 0 mm 0 m/S 755 mmHg 75%
    09:00 +27°C° 0 mm 1 m/S 755 mmHg 69%
    10:00 +28°C° 0 mm 1 m/S 756 mmHg 64%
    11:00 +29°C° 0 mm 1 m/S 755 mmHg 60%
    12:00 +30°C° 0 mm 2 m/S 754 mmHg 56%
    13:00 +31°C° 0 mm 2 m/S 753 mmHg 52%
    14:00 +31°C° 0 mm 3 m/S 752 mmHg 52%
    15:00 +31°C° 0 mm 3 m/S 752 mmHg 53%
    16:00 +30°C° 0 mm 4 m/S 751 mmHg 53%
    17:00 +29°C° 0 mm 4 m/S 752 mmHg 60%
    18:00 +27°C° 0 mm 3 m/S 753 mmHg 66%
    19:00 +26°C° 0 mm 3 m/S 753 mmHg 72%
    20:00 +26°C° 0 mm 3 m/S 754 mmHg 75%
    21:00 +25°C° 0 mm 3 m/S 754 mmHg 77%
    22:00 +25°C° 0 mm 3 m/S 755 mmHg 79%
    23:00 +25°C° 0 mm 2 m/S 754 mmHg 81%

    26 September, Mittwoch

    Zeit Temperatur Niederschläge Wind Luftdruck Luftfeuchtigkeit
    00:00 +24°C° 0 mm 2 m/S 754 mmHg 82%
    01:00 +24°C° 0 mm 2 m/S 754 mmHg 84%
    02:00 +24°C° 0 mm 2 m/S 753 mmHg 84%
    03:00 +24°C° 0 mm 2 m/S 753 mmHg 85%
    04:00 +24°C° 0 mm 2 m/S 753 mmHg 85%
    05:00 +24°C° 0 mm 2 m/S 754 mmHg 84%
    06:00 +24°C° 0 mm 2 m/S 754 mmHg 82%
    07:00 +25°C° 0 mm 2 m/S 755 mmHg 80%
    08:00 +26°C° 0 mm 2 m/S 755 mmHg 72%
    09:00 +28°C° 0 mm 2 m/S 755 mmHg 65%
    10:00 +29°C° 0 mm 1 m/S 755 mmHg 57%
    11:00 +31°C° 0 mm 2 m/S 754 mmHg 52%
    12:00 +32°C° 0 mm 2 m/S 753 mmHg 46%
    13:00 +35°C° 0 mm 3 m/S 752 mmHg 41%
    14:00 +34°C° 0 mm 3 m/S 752 mmHg 44%
    15:00 +33°C° 0 mm 4 m/S 751 mmHg 47%
    16:00 +33°C° 0 mm 5 m/S 751 mmHg 49%
    17:00 +30°C° 0 mm 5 m/S 751 mmHg 57%
    18:00 +28°C° 0 mm 4 m/S 752 mmHg 64%
    19:00 +26°C° 0 mm 4 m/S 752 mmHg 71%
    20:00 +26°C° 0 mm 4 m/S 753 mmHg 73%
    21:00 +26°C° 0 mm 3 m/S 754 mmHg 76%
    22:00 +25°C° 0 mm 3 m/S 754 mmHg 78%
    23:00 +25°C° 0 mm 3 m/S 754 mmHg 79%

    27 September, Donnerstag

    Zeit Temperatur Niederschläge Wind Luftdruck Luftfeuchtigkeit
    00:00 +25°C° 0 mm 3 m/S 754 mmHg 81%
    01:00 +25°C° 0 mm 3 m/S 753 mmHg 82%
    02:00 +25°C° 0 mm 3 m/S 753 mmHg 81%
    03:00 +25°C° 0 mm 3 m/S 753 mmHg 80%
    04:00 +25°C° 0 mm 3 m/S 753 mmHg 79%
    05:00 +25°C° 0 mm 3 m/S 754 mmHg 77%
    06:00 +25°C° 0 mm 2 m/S 754 mmHg 75%
    07:00 +26°C° 0 mm 2 m/S 755 mmHg 73%
    08:00 +27°C° 0 mm 2 m/S 755 mmHg 65%
    09:00 +29°C° 0 mm 2 m/S 755 mmHg 57%
    10:00 +31°C° 0 mm 1 m/S 755 mmHg 50%
    11:00 +32°C° 0 mm 2 m/S 754 mmHg 47%
    12:00 +34°C° 0 mm 3 m/S 753 mmHg 44%
    13:00 +34°C° 0 mm 4 m/S 752 mmHg 42%
    14:00 +33°C° 0 mm 5 m/S 752 mmHg 46%
    15:00 +32°C° 0 mm 5 m/S 751 mmHg 50%
    16:00 +30°C° 0 mm 5 m/S 751 mmHg 54%
    17:00 +29°C° 0 mm 5 m/S 752 mmHg 61%
    18:00 +27°C° 0 mm 4 m/S 752 mmHg 69%
    19:00 +26°C° 0 mm 4 m/S 753 mmHg 76%
    20:00 +25°C° 0 mm 4 m/S 753 mmHg 77%
    21:00 +25°C° 0 mm 4 m/S 754 mmHg 79%
    22:00 +25°C° 0 mm 4 m/S 754 mmHg 81%
    23:00 +25°C° 0 mm 3 m/S 754 mmHg 80%
    Mehr zeigen